sat.trackr.live / text

‹ back to catalog

STARLINK-6298

NORAD 56391 · 2023-061T

PAYLOAD ACTIVE UNKNOWN

§ Identity

Operator
Country
US
Launch date
2023-05-04
Launch site
AFETR
Launch vehicle
Mass (kg)
RCS (m²)

Purposes: comms

External: N2YO · Heavens-Above · Gunter

§ Orbital elements

Epoch: 2026-09-20T03:42:19.243296Z

Period
94.27 min
Inclination
43.0033°
Eccentricity
0.0001136
Mean motion
15.27575688 rev/d
Perigee alt
482.3 km
Apogee alt
483.8 km
Semi-major
6,861.2 km
B*
1.7013e-5
RAAN
179.3953°
Arg perigee
270.2849°
Mean anomaly
89.7873°
Rev number
18,649

§ Raw data

STARLINK-62981 56391U 23061T   26263.15438939  .00000206  00000+0  17013-4 0  99902 56391  43.0033 179.3953 0001136 270.2849  89.7873 15.27575688186493

JSON: /api/v1/satellites/56391 · /tle

For live sub-satellite position, see the globe view (requires WebGL).

§ Visibility from observer

Set your observer location to see the next 7 days of passes ≥ 10°. The values pass through the URL so the page stays shareable.

No JS? Fill the form by hand. The geolocation button needs JavaScript.